DLH22M EDDF-LFRS

Flight info

Callsign DLH22M
Flight time 1h 20m
Altitude 34000
Route SOBRA2L/18 SOBRA Y180 DIK UN857 TOLVU/N0448F330 DCT RAPOR DCT GIMER DCT ESTOC UT300 ELCOB/N0379F180 A361 LGL/N0384F190 A5 VALAX
Aircraft A319/M-SDE2E3FGIJ1LORWXYZ/HB1

Departure

Time 2026-05-07 16:12
Airport Frankfurt Main Airport (EDDF)

Arrival

Time 2026-05-07 17:33
Airport Nantes Atlantique Airport (LFRS)
Time Latitude Longitude Altitude Speed Heading
2026-05-07 15:20 50.04871 8.58975 365 ft 0 kts 340°
2026-05-07 15:55 50.04851 8.58987 368 ft 4 kts 340°
2026-05-07 15:55 50.04825 8.59001 367 ft 4 kts 340°
2026-05-07 15:55 50.04800 8.59016 368 ft 3 kts 340°
2026-05-07 15:56 50.04796 8.59018 368 ft 1 kts 340°
2026-05-07 16:02 50.04797 8.59018 368 ft 1 kts 340°
2026-05-07 16:02 50.04803 8.59023 372 ft 1 kts 36°
2026-05-07 16:02 50.04807 8.59042 369 ft 3 kts 74°
2026-05-07 16:02 50.04817 8.59104 370 ft 9 kts 75°
2026-05-07 16:03 50.04834 8.59199 370 ft 9 kts 73°
2026-05-07 16:03 50.04855 8.59299 368 ft 11 kts 71°
2026-05-07 16:03 50.04866 8.59420 369 ft 11 kts 100°
2026-05-07 16:03 50.04820 8.59511 370 ft 11 kts 138°
2026-05-07 16:04 50.04751 8.59584 373 ft 12 kts 158°
2026-05-07 16:04 50.04648 8.59616 375 ft 17 kts 178°
2026-05-07 16:04 50.04532 8.59623 376 ft 17 kts 178°
2026-05-07 16:04 50.04368 8.59634 376 ft 31 kts 178°
2026-05-07 16:05 50.04155 8.59610 375 ft 31 kts 197°
2026-05-07 16:05 50.04033 8.59536 375 ft 25 kts 206°
2026-05-07 16:05 50.03898 8.59356 369 ft 27 kts 234°
2026-05-07 16:05 50.03822 8.59081 372 ft 28 kts 250°
2026-05-07 16:06 50.03753 8.58790 366 ft 30 kts 249°
2026-05-07 16:06 50.03681 8.58485 359 ft 30 kts 250°
2026-05-07 16:06 50.03608 8.58181 364 ft 30 kts 249°
2026-05-07 16:06 50.03538 8.57889 360 ft 29 kts 250°
2026-05-07 16:07 50.03466 8.57586 357 ft 30 kts 250°
2026-05-07 16:07 50.03393 8.57282 357 ft 30 kts 249°
2026-05-07 16:07 50.03319 8.56976 356 ft 30 kts 249°
2026-05-07 16:07 50.03247 8.56667 353 ft 31 kts 250°
2026-05-07 16:08 50.03173 8.56358 353 ft 31 kts 250°
2026-05-07 16:08 50.03098 8.56045 351 ft 31 kts 249°
2026-05-07 16:08 50.03023 8.55731 348 ft 30 kts 249°
2026-05-07 16:08 50.02949 8.55424 347 ft 30 kts 249°
2026-05-07 16:09 50.02877 8.55122 347 ft 30 kts 250°
2026-05-07 16:09 50.02805 8.54821 343 ft 30 kts 249°
2026-05-07 16:09 50.02733 8.54518 340 ft 30 kts 250°
2026-05-07 16:09 50.02668 8.54211 335 ft 30 kts 255°
2026-05-07 16:10 50.02597 8.53907 331 ft 30 kts 250°
2026-05-07 16:10 50.02525 8.53605 332 ft 29 kts 249°
2026-05-07 16:10 50.02455 8.53313 335 ft 29 kts 249°
2026-05-07 16:10 50.02385 8.53020 335 ft 29 kts 249°
2026-05-07 16:11 50.02317 8.52740 334 ft 18 kts 250°
2026-05-07 16:11 50.02263 8.52604 335 ft 13 kts 194°
2026-05-07 16:11 50.02238 8.52605 335 ft 1 kts 178°
2026-05-07 16:11 50.02209 8.52606 335 ft 16 kts 179°
2026-05-07 16:12 50.01800 8.52607 334 ft 98 kts 180°
2026-05-07 16:12 50.00900 8.52616 391 ft 152 kts 181°
2026-05-07 16:12 49.99834 8.52645 1041 ft 154 kts 181°
2026-05-07 16:12 49.98751 8.52667 1701 ft 159 kts 178°
2026-05-07 16:13 49.97575 8.52757 2006 ft 182 kts 176°
2026-05-07 16:13 49.96150 8.52878 2161 ft 219 kts 177°
2026-05-07 16:13 49.94565 8.52997 2822 ft 233 kts 178°
2026-05-07 16:13 49.92958 8.53112 3747 ft 234 kts 179°
2026-05-07 16:14 49.91324 8.53226 4725 ft 235 kts 179°
2026-05-07 16:14 49.89678 8.53338 5631 ft 237 kts 180°
2026-05-07 16:14 49.88023 8.53416 6504 ft 240 kts 184°
2026-05-07 16:14 49.86365 8.52953 7225 ft 248 kts 200°
2026-05-07 16:15 49.84664 8.52002 7755 ft 269 kts 202°
2026-05-07 16:15 49.82873 8.50983 8630 ft 278 kts 202°
2026-05-07 16:15 49.81047 8.49946 9610 ft 282 kts 202°
2026-05-07 16:15 49.79213 8.48781 10376 ft 292 kts 210°
2026-05-07 16:16 49.77593 8.46718 10691 ft 314 kts 232°
2026-05-07 16:16 49.76534 8.43712 11111 ft 330 kts 253°
2026-05-07 16:16 49.76265 8.40160 11827 ft 337 kts 274°
2026-05-07 16:16 49.76725 8.36553 12609 ft 343 kts 283°
2026-05-07 16:17 49.77290 8.32993 13413 ft 347 kts 284°
2026-05-07 16:17 49.77879 8.29340 14161 ft 352 kts 284°
2026-05-07 16:17 49.78478 8.25643 14873 ft 356 kts 284°
2026-05-07 16:17 49.79084 8.21899 15598 ft 359 kts 283°
2026-05-07 16:18 49.79696 8.18109 16322 ft 363 kts 283°
2026-05-07 16:18 49.80302 8.14341 17038 ft 366 kts 283°
2026-05-07 16:18 49.80917 8.10478 17770 ft 370 kts 283°
2026-05-07 16:18 49.81534 8.06586 18458 ft 374 kts 283°
2026-05-07 16:19 49.82151 8.02691 19065 ft 377 kts 283°
2026-05-07 16:19 49.82779 7.98717 19672 ft 381 kts 283°
2026-05-07 16:19 49.83406 7.94716 20291 ft 384 kts 283°
2026-05-07 16:19 49.84039 7.90663 20915 ft 388 kts 283°
2026-05-07 16:20 49.84679 7.86583 21512 ft 391 kts 283°
2026-05-07 16:20 49.85322 7.82470 22111 ft 394 kts 283°
2026-05-07 16:20 49.85963 7.78359 22688 ft 397 kts 283°
2026-05-07 16:20 49.86617 7.74171 23269 ft 400 kts 283°
2026-05-07 16:21 49.87282 7.69959 23778 ft 404 kts 283°
2026-05-07 16:21 49.87951 7.65708 24253 ft 406 kts 283°
2026-05-07 16:21 49.88609 7.61482 24714 ft 409 kts 283°
2026-05-07 16:21 49.89275 7.57166 25180 ft 412 kts 283°
2026-05-07 16:22 49.89942 7.52830 25648 ft 414 kts 283°
2026-05-07 16:22 49.90612 7.48459 26116 ft 417 kts 283°
2026-05-07 16:22 49.91285 7.44047 26571 ft 420 kts 283°
2026-05-07 16:22 49.91961 7.39615 27032 ft 422 kts 282°
2026-05-07 16:23 49.92632 7.35214 27467 ft 425 kts 282°
2026-05-07 16:23 49.93311 7.30728 27899 ft 428 kts 282°
2026-05-07 16:23 49.93993 7.26207 28332 ft 431 kts 282°
2026-05-07 16:23 49.94677 7.21663 28746 ft 433 kts 282°
2026-05-07 16:24 49.95366 7.17089 29152 ft 436 kts 282°
2026-05-07 16:24 49.96050 7.12549 29549 ft 438 kts 282°
2026-05-07 16:24 49.96747 7.07902 29941 ft 441 kts 282°
2026-05-07 16:24 49.97444 7.03231 30271 ft 443 kts 282°
2026-05-07 16:25 49.98131 6.98592 30559 ft 446 kts 282°
2026-05-07 16:25 49.98819 6.93886 30855 ft 447 kts 280°
2026-05-07 16:25 49.99204 6.89084 31290 ft 446 kts 271°
2026-05-07 16:25 49.99148 6.84279 31737 ft 444 kts 266°
2026-05-07 16:26 49.98994 6.79490 32190 ft 443 kts 266°
2026-05-07 16:26 49.98849 6.74705 32641 ft 442 kts 266°
2026-05-07 16:26 49.98709 6.69931 33090 ft 441 kts 266°
2026-05-07 16:26 49.98571 6.65231 33537 ft 440 kts 266°
2026-05-07 16:27 49.98408 6.60490 33942 ft 439 kts 264°
2026-05-07 16:27 49.96969 6.51376 34010 ft 433 kts 247°
2026-05-07 16:28 49.94572 6.42812 33996 ft 432 kts 246°
2026-05-07 16:28 49.92158 6.34253 33982 ft 431 kts 246°
2026-05-07 16:29 49.89756 6.25774 33984 ft 431 kts 245°
2026-05-07 16:29 49.87298 6.17275 34003 ft 431 kts 246°
2026-05-07 16:30 49.84396 6.09205 34010 ft 431 kts 235°
2026-05-07 16:30 49.80931 6.01610 34012 ft 431 kts 234°
2026-05-07 16:31 49.77463 5.94099 34007 ft 431 kts 234°
2026-05-07 16:31 49.74164 5.86356 33995 ft 430 kts 244°
2026-05-07 16:32 49.72027 5.77709 33976 ft 431 kts 250°
2026-05-07 16:32 49.70022 5.69034 33953 ft 431 kts 250°
2026-05-07 16:33 49.67984 5.60319 33949 ft 431 kts 250°
2026-05-07 16:33 49.65935 5.51604 33948 ft 431 kts 250°
2026-05-07 16:34 49.63891 5.42949 33948 ft 432 kts 249°
2026-05-07 16:34 49.61846 5.34226 33948 ft 432 kts 250°
2026-05-07 16:35 49.59940 5.25416 33947 ft 432 kts 251°
2026-05-07 16:35 49.58162 5.16557 33945 ft 432 kts 254°
2026-05-07 16:36 49.56638 5.07637 33951 ft 433 kts 255°
2026-05-07 16:36 49.55145 4.98725 33947 ft 433 kts 255°
2026-05-07 16:37 49.53568 4.89773 33950 ft 433 kts 254°
2026-05-07 16:37 49.51956 4.80886 33944 ft 433 kts 254°
2026-05-07 16:38 49.50325 4.71954 33946 ft 433 kts 254°
2026-05-07 16:38 49.48695 4.63008 33941 ft 434 kts 254°
2026-05-07 16:39 49.47083 4.54112 33943 ft 434 kts 254°
2026-05-07 16:39 49.45453 4.45171 33391 ft 431 kts 254°
2026-05-07 16:39 49.44638 4.40738 33029 ft 431 kts 254°
2026-05-07 16:40 49.43830 4.36355 32971 ft 432 kts 253°
2026-05-07 16:40 49.42176 4.27432 33002 ft 434 kts 253°
2026-05-07 16:41 49.40517 4.18495 33017 ft 434 kts 253°
2026-05-07 16:41 49.38854 4.09616 33019 ft 435 kts 253°
2026-05-07 16:42 49.37172 4.00682 33019 ft 435 kts 253°
2026-05-07 16:42 49.35604 3.91742 33004 ft 435 kts 256°
2026-05-07 16:43 49.34345 3.82640 32986 ft 435 kts 258°
2026-05-07 16:43 49.33153 3.73576 32965 ft 435 kts 258°
2026-05-07 16:44 49.31861 3.64478 32941 ft 436 kts 257°
2026-05-07 16:44 49.30531 3.55465 32938 ft 436 kts 257°
2026-05-07 16:45 49.29191 3.46409 32936 ft 436 kts 257°
2026-05-07 16:45 49.27857 3.37335 32940 ft 436 kts 257°
2026-05-07 16:46 49.26518 3.28266 32942 ft 436 kts 257°
2026-05-07 16:46 49.25176 3.19201 32940 ft 436 kts 257°
2026-05-07 16:47 49.23819 3.10144 32940 ft 436 kts 256°
2026-05-07 16:47 49.22460 3.01154 32942 ft 436 kts 257°
2026-05-07 16:48 49.21089 2.92091 32964 ft 436 kts 256°
2026-05-07 16:48 49.20856 2.90560 32966 ft 436 kts 256°
2026-05-07 16:49 49.19641 2.82433 32973 ft 436 kts 257°
2026-05-07 16:49 49.18480 2.74870 32993 ft 436 kts 256°
2026-05-07 16:50 49.17080 2.65874 33013 ft 437 kts 256°
2026-05-07 16:50 49.15670 2.56830 33023 ft 437 kts 257°
2026-05-07 16:51 49.14264 2.47830 33025 ft 437 kts 256°
2026-05-07 16:51 49.12891 2.38768 33013 ft 438 kts 261°
2026-05-07 16:52 49.12047 2.29602 32996 ft 438 kts 262°
2026-05-07 16:52 49.11195 2.20368 33012 ft 438 kts 262°
2026-05-07 16:53 49.10330 2.11154 33022 ft 438 kts 262°
2026-05-07 16:53 49.09461 2.01994 33021 ft 438 kts 262°
2026-05-07 16:54 49.08721 1.92759 33024 ft 438 kts 264°
2026-05-07 16:54 49.08067 1.83498 33008 ft 439 kts 264°
2026-05-07 16:55 49.07376 1.74248 32997 ft 439 kts 264°
2026-05-07 16:55 49.06647 1.64997 33027 ft 439 kts 264°
2026-05-07 16:56 49.05903 1.55756 33021 ft 439 kts 264°
2026-05-07 16:56 49.04788 1.41927 33021 ft 440 kts 264°
2026-05-07 16:57 49.04037 1.32648 33017 ft 440 kts 264°
2026-05-07 16:57 49.03097 1.23480 33009 ft 441 kts 256°
2026-05-07 16:58 49.00679 1.14871 33018 ft 443 kts 243°
2026-05-07 16:58 48.97825 1.06609 33015 ft 443 kts 243°
2026-05-07 16:59 48.94942 0.98282 33018 ft 443 kts 243°
2026-05-07 16:59 48.92073 0.90016 33017 ft 444 kts 243°
2026-05-07 17:00 48.89171 0.81713 33035 ft 444 kts 243°
2026-05-07 17:00 48.86251 0.73406 33032 ft 444 kts 243°
2026-05-07 17:01 48.83361 0.65190 33024 ft 444 kts 243°
2026-05-07 17:01 48.80437 0.56925 33025 ft 444 kts 243°
2026-05-07 17:02 48.76948 0.49217 33022 ft 445 kts 231°
2026-05-07 17:02 48.72925 0.42085 33015 ft 445 kts 231°
2026-05-07 17:03 48.68899 0.34972 33013 ft 445 kts 231°
2026-05-07 17:03 48.64904 0.27880 33010 ft 444 kts 231°
2026-05-07 17:04 48.60894 0.20766 33007 ft 444 kts 231°
2026-05-07 17:04 48.56670 0.13950 33010 ft 445 kts 221°
2026-05-07 17:05 48.51929 0.07917 33007 ft 445 kts 221°
2026-05-07 17:05 48.47225 0.01926 33011 ft 445 kts 221°
2026-05-07 17:06 48.42495 -0.04096 33010 ft 444 kts 221°
2026-05-07 17:06 48.37776 -0.10091 33005 ft 444 kts 221°
2026-05-07 17:07 48.33047 -0.16086 32960 ft 444 kts 221°
2026-05-07 17:07 48.30681 -0.19069 32692 ft 443 kts 221°
2026-05-07 17:07 48.28317 -0.22045 32417 ft 443 kts 221°
2026-05-07 17:08 48.25974 -0.24996 32155 ft 443 kts 221°
2026-05-07 17:08 48.23607 -0.27977 31893 ft 443 kts 221°
2026-05-07 17:08 48.21241 -0.30957 31631 ft 443 kts 221°
2026-05-07 17:08 48.18874 -0.33931 31367 ft 444 kts 221°
2026-05-07 17:09 48.16504 -0.36901 31102 ft 444 kts 221°
2026-05-07 17:09 48.14134 -0.39864 30855 ft 444 kts 221°
2026-05-07 17:09 48.11767 -0.42820 30526 ft 442 kts 221°
2026-05-07 17:09 48.09437 -0.45727 29779 ft 439 kts 221°
2026-05-07 17:10 48.07102 -0.48636 29042 ft 434 kts 220°
2026-05-07 17:10 48.04791 -0.51505 28358 ft 429 kts 220°
2026-05-07 17:10 48.02498 -0.54346 27671 ft 425 kts 220°
2026-05-07 17:10 48.00236 -0.57146 27001 ft 420 kts 220°
2026-05-07 17:11 47.97990 -0.59924 26343 ft 417 kts 220°
2026-05-07 17:11 47.95768 -0.62676 25683 ft 413 kts 221°
2026-05-07 17:11 47.93577 -0.65396 25036 ft 409 kts 221°
2026-05-07 17:11 47.91413 -0.68081 24395 ft 406 kts 221°
2026-05-07 17:12 47.89221 -0.70798 23747 ft 404 kts 221°
2026-05-07 17:12 47.87092 -0.73434 23065 ft 401 kts 221°
2026-05-07 17:12 47.84950 -0.76080 22485 ft 397 kts 221°
2026-05-07 17:12 47.82831 -0.78689 21901 ft 393 kts 221°
2026-05-07 17:13 47.80728 -0.81276 21367 ft 390 kts 221°
2026-05-07 17:13 47.78642 -0.83836 20833 ft 387 kts 220°
2026-05-07 17:13 47.76570 -0.86376 20327 ft 384 kts 220°
2026-05-07 17:13 47.74512 -0.88894 19817 ft 381 kts 220°
2026-05-07 17:14 47.72500 -0.91356 19326 ft 378 kts 220°
2026-05-07 17:14 47.70477 -0.93823 18830 ft 375 kts 220°
2026-05-07 17:14 47.68462 -0.96272 18308 ft 373 kts 220°
2026-05-07 17:14 47.66452 -0.98706 17748 ft 370 kts 220°
2026-05-07 17:15 47.64470 -1.01107 17214 ft 365 kts 220°
2026-05-07 17:15 47.62512 -1.03477 16697 ft 362 kts 220°
2026-05-07 17:15 47.60562 -1.05840 16160 ft 360 kts 220°
2026-05-07 17:15 47.58656 -1.08151 15635 ft 358 kts 220°
2026-05-07 17:16 47.56735 -1.10486 15094 ft 356 kts 220°
2026-05-07 17:16 47.54820 -1.12835 14609 ft 360 kts 221°
2026-05-07 17:16 47.52899 -1.15248 14147 ft 362 kts 221°
2026-05-07 17:16 47.50993 -1.17672 13669 ft 360 kts 222°
2026-05-07 17:17 47.49119 -1.20061 13184 ft 358 kts 221°
2026-05-07 17:17 47.47229 -1.22459 12673 ft 355 kts 221°
2026-05-07 17:17 47.45350 -1.24835 12147 ft 351 kts 221°
2026-05-07 17:17 47.43503 -1.27161 11620 ft 347 kts 221°
2026-05-07 17:18 47.41687 -1.29444 10998 ft 346 kts 221°
2026-05-07 17:18 47.39852 -1.31740 10482 ft 341 kts 221°
2026-05-07 17:18 47.38072 -1.33955 10161 ft 327 kts 221°
2026-05-07 17:18 47.36366 -1.36076 9970 ft 311 kts 221°
2026-05-07 17:19 47.34755 -1.38079 9785 ft 297 kts 221°
2026-05-07 17:19 47.33211 -1.40009 9392 ft 290 kts 221°
2026-05-07 17:19 47.31699 -1.41899 9154 ft 281 kts 221°
2026-05-07 17:19 47.30202 -1.43773 8955 ft 283 kts 221°
2026-05-07 17:20 47.28692 -1.45659 8972 ft 285 kts 221°
2026-05-07 17:20 47.27178 -1.47545 8971 ft 285 kts 221°
2026-05-07 17:20 47.25658 -1.49432 8972 ft 285 kts 221°
2026-05-07 17:20 47.24160 -1.51288 8974 ft 285 kts 221°
2026-05-07 17:21 47.22644 -1.53167 8972 ft 285 kts 221°
2026-05-07 17:21 47.21125 -1.55054 8974 ft 285 kts 221°
2026-05-07 17:21 47.19608 -1.56937 8767 ft 285 kts 221°
2026-05-07 17:21 47.18090 -1.58818 8409 ft 282 kts 221°
2026-05-07 17:22 47.16590 -1.60672 8044 ft 280 kts 221°
2026-05-07 17:22 47.15177 -1.62587 7696 ft 277 kts 229°
2026-05-07 17:22 47.13999 -1.64789 7417 ft 271 kts 233°
2026-05-07 17:22 47.12853 -1.66971 7154 ft 266 kts 233°
2026-05-07 17:23 47.11722 -1.69106 6901 ft 262 kts 232°
2026-05-07 17:23 47.10613 -1.71190 6652 ft 257 kts 232°
2026-05-07 17:23 47.09523 -1.73198 6410 ft 252 kts 231°
2026-05-07 17:23 47.08420 -1.75189 6139 ft 248 kts 231°
2026-05-07 17:24 47.07334 -1.77135 5855 ft 244 kts 230°
2026-05-07 17:24 47.06262 -1.79045 5574 ft 241 kts 230°
2026-05-07 17:24 47.05204 -1.80933 5288 ft 238 kts 230°
2026-05-07 17:24 47.04158 -1.82804 4961 ft 237 kts 230°
2026-05-07 17:25 47.03118 -1.84668 4662 ft 235 kts 230°
2026-05-07 17:25 47.02087 -1.86520 4386 ft 232 kts 230°
2026-05-07 17:25 47.00910 -1.88023 4120 ft 225 kts 201°
2026-05-07 17:25 46.99421 -1.88154 3865 ft 214 kts 160°
2026-05-07 17:26 46.98239 -1.86954 3620 ft 205 kts 133°
2026-05-07 17:26 46.97287 -1.85437 3450 ft 198 kts 130°
2026-05-07 17:26 46.96417 -1.83895 3337 ft 195 kts 127°
2026-05-07 17:26 46.95621 -1.82299 3152 ft 193 kts 123°
2026-05-07 17:27 46.95143 -1.80476 3052 ft 193 kts 101°
2026-05-07 17:27 46.95163 -1.78515 2994 ft 195 kts 80°
2026-05-07 17:27 46.95689 -1.76685 3006 ft 197 kts 58°
2026-05-07 17:27 46.96655 -1.75262 3026 ft 197 kts 36°
2026-05-07 17:28 46.97846 -1.74318 3010 ft 196 kts 28°
2026-05-07 17:28 46.99062 -1.73403 3006 ft 196 kts 28°
2026-05-07 17:28 47.00269 -1.72492 2995 ft 191 kts 28°
2026-05-07 17:28 47.01439 -1.71607 2882 ft 187 kts 28°
2026-05-07 17:29 47.02593 -1.70733 2669 ft 185 kts 28°
2026-05-07 17:29 47.03734 -1.69869 2429 ft 184 kts 28°
2026-05-07 17:29 47.04862 -1.69015 2178 ft 178 kts 27°
2026-05-07 17:29 47.05904 -1.68225 1945 ft 157 kts 27°
2026-05-07 17:30 47.06819 -1.67531 1749 ft 140 kts 27°
2026-05-07 17:30 47.07653 -1.66898 1560 ft 131 kts 27°
2026-05-07 17:30 47.08455 -1.66283 1362 ft 128 kts 28°
2026-05-07 17:30 47.09237 -1.65671 1160 ft 127 kts 27°
2026-05-07 17:31 47.10024 -1.65088 969 ft 127 kts 26°
2026-05-07 17:31 47.10800 -1.64510 838 ft 127 kts 27°
2026-05-07 17:31 47.11589 -1.63915 698 ft 128 kts 27°
2026-05-07 17:31 47.12382 -1.63316 531 ft 128 kts 27°
2026-05-07 17:32 47.13177 -1.62715 364 ft 129 kts 27°
2026-05-07 17:32 47.13971 -1.62104 190 ft 129 kts 28°
2026-05-07 17:32 47.14755 -1.61498 101 ft 118 kts 28°
2026-05-07 17:32 47.15192 -1.61163 96 ft 91 kts 27°
2026-05-07 17:33 47.15705 -1.60774 99 ft 44 kts 27°
2026-05-07 17:33 47.15818 -1.60682 98 ft 19 kts 48°
2026-05-07 17:33 47.15815 -1.60532 96 ft 0 kts 122°
2026-05-07 17:35 47.15811 -1.60526 96 ft 2 kts 129°
2026-05-07 17:35 47.15785 -1.60487 100 ft 7 kts 141°
2026-05-07 17:35 47.15746 -1.60445 99 ft 7 kts 144°
2026-05-07 17:35 47.15703 -1.60398 101 ft 8 kts 139°
2026-05-07 17:36 47.15675 -1.60324 98 ft 7 kts 80°
2026-05-07 17:36 47.15698 -1.60296 99 ft 1 kts 15°
2026-05-07 17:36 47.15700 -1.60289 100 ft 1 kts 47°
2026-05-07 17:36 47.15710 -1.60274 98 ft 3 kts 45°
2026-05-07 17:37 47.15714 -1.60269 99 ft 0 kts 45°
2026-05-07 17:44 47.15714 -1.60268 98 ft 0 kts 45°